STARLINK-33788, 63589

Orbit data source: Space-Track

STARLINK-33788, 63589 is a payload satellite owned by SpaceX/Seattle (US) in LEO that was launched on Mon, 14 Apr 2025 UTC via an FALCON 9 launch vehicle from the Air Force Eastern Test Range (AFETR). Payload-class satellites include a variety of spacecraft equipped with specific instruments for various scientific and technological missions. These include communications satellites like Starlink; space stations such as the ISS; scientific satellites like the Hubble; Earth observation satellites from companies like Planet Labs, Umbra, and HawkEye 360; GPS; miniature CubeSats for education and research; and military/defense satellites.

Loading next visibility...
Identifier
63589, 2025-076W
Orbit
LEO
Country
Flag of USUS
Related business
Manufacturer
SpaceX/Seattle
Mission
Operational Commercial Communications
Bus & Motor
STARLINK V2MO, Unknown motor
Mass
575 kg wet, ~530 kg dry
Launch date (UTC)
2025-04-14 (5 months ago)
Launch vehicle
FALCON 9
Launch site
Air Force Eastern Test Range (AFETR)
Object type
Payload
Rocket body
Debris
Shape & HBR
Box + 1 Pan, 14.5 m
Radar Cross Section
41.120 m², Large (>1 m²)

Expand to show TLE details & history
Last TLE update: 16 hours ago

TLE from 16 hours ago
0 STARLINK-33788
1 63589U 25076W   25259.60443562  .00028129  00000-0  10279-2 0  9997
2 63589  42.9977 225.0601 0000248 288.2469  71.8356 15.27576963 25200
Epoch: 2025-09-16T14:30Z
TLE epoch observation values (Epoch: 2025-09-16T14:30:23.237Z)
Latitude
0.00001°
Longitude
11.67094°
Altitude
482.78 km
Speed
7.626 km/s
True Right ascension
15h 00m 14s
True Declination
0° 00' 00"
Sunlit
Object was in daylight at epoch
Visualization orbit readout
Latitude
Unknown
Longitude
Unknown
Altitude
Unknown
Speed
Unknown
Apparent Right ascension
Unknown
Apparent Declination
Unknown
Sunlit
N/A
Visualization observer readout
Local Sidereal Time
23:20:11
Azimuth
Unknown
Elevation
Unknown
Doppler factor
Unknown
Orbital elements
Apogee altitude
485.174 km
Perigee altitude
484.834 km
Semi-major axis
6,863.141 km
Eccentricity
0.00002
Inclination
42.9977°
RAAN
225.0601°
Arg. of periapsis
288.2469°
True anomaly
71.8383°
Mean anomaly
71.8356°
Eccentric anomaly
71.83695°
Mean motion
3.81732 °/min
Orbital period
94.31 mins
BSTAR
0.0010279
Loading maneuver chart data...
Computing Atmospheric mass density...
Loading historical data...
Loading historical data...
Loading historical data...
Loading historical data...
Loading historical data...
Loading historical data...
Loading historical data...

Documentation

Showing up to 5 results
|